Regional Weather Roundup
Issued by NWS

Home | Current Version | Previous Version | Text Only | Print | Product List | Glossary On
Versions: 1 2 3 4 5 6 7 8 9 10 11 12 13 14 15 16 17 18 19 20 21 22 23 24 25 26 27 28 29 30 31 32 33 34 35 36 37 38 39 40 41 42 43 44 45 46 47 48 49 50
000
ASUS44 KBMX 300210
RWRAL

ALABAMA REGIONAL WEATHER ROUNDUP
NATIONAL WEATHER SERVICE BIRMINGHAM AL
900 PM CDT SUN MAR 29 2015

NOTE: "FAIR" INDICATES FEW OR NO CLOUDS BELOW 12,000 FEET
WITH NO SIGNIFICANT WEATHER AND/OR OBSTRUCTIONS TO VISIBILITY.

THE REMARK "TC" DENOTES TEMPERATURE IN DEGREES CELSIUS.

ALZ001>011-014-016>018-020-300300-
NORTH ALABAMA

CITY           SKY/WX    TMP DP  RH WIND       PRES   REMARKS
MUSCLE SHOALS  CLEAR     53  40  61 SE5       30.13R
HUNTSVILLE     MOCLDY    54  39  57 SE9       30.14S
DECATUR        CLEAR     51  40  65 SE10      30.14S
HALEYVILLE     FAIR      56  42  59 S8        30.14F
GADSDEN        CLEAR     54  34  47 S6        30.18F
$$

ALZ012-013-022-023-030>036-040>044-300300-
WEST CENTRAL ALABAMA

CITY           SKY/WX    TMP DP  RH WIND       PRES   REMARKS
TUSCALOOSA     CLEAR     63  45  51 SE7       30.16S
$$

ALZ015-024>027-033>036-040>044-300300-
CENTRAL ALABAMA

CITY           SKY/WX    TMP DP  RH WIND       PRES   REMARKS
BIRMINGHAM     CLEAR     57  38  48 VRB3      30.20S
MONTGOMERY     CLEAR     60  41  49 MISG      30.25R
SHELBY CO ARPT CLEAR     58  40  51 SE6       30.20S
MAXWELL AFB    CLEAR     57  43  58 S10       30.23R
GREENVILLE     FAIR      60  46  59 SW7       30.25R
$$

ALZ019-021-028-029-037-038-045>048-300300-
EAST CENTRAL ALABAMA

CITY           SKY/WX    TMP DP  RH WIND       PRES   REMARKS
ANNISTON       CLEAR     52  39  61 CALM      30.22S
ALEXANDER CITY CLEAR     54  40  59 SE3       30.24S
AUBURN         CLEAR     54  30  40 S8        30.29R
$$

ALZ051>064-300300-
SOUTHWEST ALABAMA

CITY           SKY/WX    TMP DP  RH WIND       PRES   REMARKS
MOBILE         PTCLDY    60  56  86 SE8       30.26R
BROOKLEY FIELD CLOUDY    63  55  75 SE8       30.27S
EVERGREEN      CLEAR     56  48  74 S7        30.28R
$$

ALZ049-050-065>069-300300-
SOUTHEAST ALABAMA

CITY           SKY/WX    TMP DP  RH WIND       PRES   REMARKS
DOTHAN         CLEAR     54  41  61 S7        30.32R
OZARK          CLEAR     57  41  55 SW6       30.29R
TROY           CLEAR     57  42  57 S5        30.27R
EUFAULA        FAIR      49  39  68 CALM      30.27S
$$



USA.gov is the U.S. government's official web portal to all federal, state and local government web resources and services.